Theta_e
331 331 331 331 329 329 329 327 327 327 329 329 327 328 329 330 327 329 331 328 315 321 319 317 326 335 337 339 340 341 337 335 333 331 333 331 329 328 327 329 330 330 329
331 332 331 331 329 330 330 328 328 327 326 327 329 329 330 328 328 330 331 327 314 317 320 317 325 334 337 338 339 340 336 335 333 331 330 329 327 326 326 329 330 329 324
331 329 330 330 328 327 325 326 326 327 326 327 328 329 329 330 328 329 329 325 324 318 321 318 326 334 337 338 339 338 337 334 332 331 330 328 328 326 329 330 327 320 311
327 328 328 327 327 328 326 327 327 326 327 326 328 326 328 328 328 328 325 324 326 328 327 318 328 333 337 339 339 333 334 330 332 331 330 329 327 329 331 326 317 311 308
329 329 327 328 329 326 326 325 328 327 327 327 325 325 326 328 328 325 323 326 329 330 329 331 330 333 337 339 339 337 334 331 333 331 331 328 330 330 325 313 311 308 307
330 328 328 329 327 325 326 326 327 326 326 326 326 326 328 327 327 324 325 328 329 330 331 332 332 333 335 338 339 339 336 334 333 332 329 327 329 325 312 312 308 308 308
329 328 330 328 327 325 323 325 324 324 324 325 327 326 326 326 326 325 326 328 327 328 329 332 332 333 334 339 339 336 334 334 332 329 326 327 323 311 313 312 309 309 310
329 330 328 327 326 323 322 323 323 324 326 323 325 327 327 326 326 328 329 328 328 331 333 333 333 331 327 325 335 334 333 333 329 326 326 321 313 317 314 311 323 311 310
328 327 326 325 325 324 326 323 323 323 324 323 324 328 327 325 326 328 329 328 329 331 332 332 333 333 330 328 328 325 332 331 328 325 321 315 321 320 324 323 309 310 310
327 327 324 325 326 323 322 324 324 327 324 327 326 328 328 327 325 330 328 328 329 330 330 332 333 332 331 330 328 327 330 331 327 319 316 325 325 322 323 309 310 311 309
327 325 326 327 326 324 323 326 327 325 325 326 327 326 326 326 329 330 331 329 329 332 331 333 333 333 330 330 334 333 332 328 320 320 325 323 324 320 310 310 311 310 308
327 327 328 325 324 324 325 325 327 326 326 325 326 326 327 327 327 328 331 330 331 332 332 332 333 332 331 331 331 330 329 324 317 323 323 324 324 313 311 310 311 309 308
326 327 326 326 324 325 326 327 326 329 326 324 325 327 328 328 329 327 331 329 331 332 331 331 332 332 332 330 331 330 324 318 323 323 323 324 319 313 311 310 311 309 309
327 327 326 325 327 327 327 326 327 327 326 325 325 324 326 328 323 328 330 330 330 330 329 327 328 329 328 328 329 324 321 324 323 324 325 322 315 312 310 311 310 310 310
328 326 326 326 327 326 327 326 325 328 327 326 326 325 325 326 329 328 329 330 330 329 328 329 328 329 328 328 324 322 323 324 324 325 324 316 316 311 310 311 310 311 311
328 328 327 328 326 326 327 326 327 327 328 326 323 323 325 329 328 328 329 330 329 328 328 329 326 327 326 326 323 323 324 325 325 324 322 317 313 310 311 311 312 312 313
328 329 329 329 328 325 324 325 327 328 325 326 326 327 327 327 328 327 328 326 325 325 327 328 328 328 326 324 323 325 325 325 322 321 317 313 312 312 313 311 311 312 314
328 328 328 329 324 323 324 325 326 328 327 327 326 327 328 328 328 326 326 325 327 328 328 327 327 326 325 325 324 325 325 325 323 316 313 313 314 312 311 311 313 316 317
328 328 329 329 321 324 326 325 326 324 326 328 328 329 329 329 328 326 327 327 329 328 327 326 326 326 325 325 325 326 325 322 317 315 312 311 311 311 312 315 317 318 319
328 328 328 324 325 325 325 324 325 326 326 328 330 329 329 329 327 326 327 329 329 328 327 327 326 325 325 325 326 325 322 321 315 313 311 310 312 316 319 320 321 321 319
330 330 328 325 325 326 327 328 331 331 328 329 330 330 330 330 329 326 328 328 328 328 327 326 326 326 325 325 326 324 320 315 314 316 319 322 321 321 321 319 316 312 312
330 330 330 326 325 325 325 325 326 329 329 328 328 328 328 328 328 328 328 328 328 328 327 326 325 326 326 326 325 321 317 320 321 321 321 317 316 318 318 312 312 311 307
330 330 330 325 325 325 325 325 325 327 329 329 328 329 328 327 328 328 327 327 328 327 326 326 326 326 326 325 325 323 322 323 323 321 318 316 315 316 312 313 311 308 297
328 326 326 325 324 325 325 324 325 327 327 328 329 327 329 328 327 327 327 327 327 327 327 326 325 325 325 325 323 321 325 325 323 320 318 316 313 312 313 312 309 299 296
326 327 327 327 326 325 326 326 327 327 327 328 329 328 327 327 328 327 327 327 326 326 326 326 325 325 326 326 323 322 321 323 323 322 320 317 314 311 310 310 305 296 296
328 327 328 328 327 326 326 327 327 327 327 328 327 329 326 325 326 324 325 326 325 326 326 326 325 326 325 324 315 320 324 324 324 322 319 318 316 314 313 309 304 296 296
Wind_Speed
14 14 14 14 15 15 14 13 13 13 12 12 15 17 16 16 18 21 15 20 19 19 20 22 22 20 20 22 21 22 31 33 28 26 25 22 22 20 15 14 14 13 11
14 15 15 14 15 16 15 13 13 12 13 13 15 16 15 17 19 20 14 14 16 19 19 22 20 20 20 22 22 28 36 35 26 25 24 23 23 23 18 16 15 13 9
16 18 16 16 16 18 19 17 14 12 12 14 14 14 15 18 18 15 14 11 11 16 19 21 19 20 21 24 24 25 28 23 19 32 27 26 24 22 20 16 14 12 10
18 19 19 19 18 17 20 16 13 13 13 13 16 13 13 14 12 13 11 11 11 12 13 19 18 19 21 25 29 29 29 24 33 34 31 29 27 22 19 16 13 10 10
17 19 20 17 18 18 18 16 13 14 13 16 15 12 12 11 9 10 11 11 13 13 13 15 17 18 23 31 34 34 26 27 29 29 27 30 24 21 18 14 12 12 12
17 19 19 18 17 17 16 14 13 13 13 12 12 12 10 10 10 10 11 12 12 12 13 11 12 17 21 28 31 33 26 27 31 28 35 33 24 20 17 16 15 13 12
17 18 19 17 17 16 16 13 14 14 14 14 12 12 10 10 10 10 11 12 11 11 11 10 11 15 20 35 34 24 27 27 29 35 34 27 23 21 20 21 19 15 10
14 16 15 16 15 16 17 16 15 13 14 14 13 11 9 8 10 11 10 10 10 10 10 11 15 18 12 16 19 28 31 33 37 40 31 28 26 24 22 19 14 10 9
10 12 13 13 12 12 15 15 15 13 13 13 13 8 7 9 13 10 12 11 11 11 11 13 15 14 15 16 31 8 23 36 42 39 31 30 26 24 19 16 15 13 10
10 9 8 9 10 13 13 12 9 10 12 11 11 10 7 4 13 9 11 11 12 13 13 13 16 18 21 20 18 24 28 33 40 36 33 30 27 21 19 19 17 16 10
7 5 7 9 11 10 9 8 9 11 11 10 10 10 10 8 8 10 11 12 12 12 11 12 17 20 21 19 28 28 33 44 40 38 33 32 25 22 20 20 15 13 10
6 7 7 8 7 6 7 7 8 9 7 8 10 8 8 9 10 8 12 15 13 11 8 11 15 19 23 23 23 21 37 43 39 39 36 26 19 19 18 17 14 11 9
6 7 7 7 6 5 6 7 9 8 7 6 9 10 6 3 5 6 13 17 17 14 13 11 13 17 19 16 27 45 50 45 44 36 28 20 16 17 16 15 12 10 9
8 8 7 6 5 5 7 8 8 8 7 6 7 12 9 5 9 4 12 21 19 17 13 12 11 17 19 17 39 45 44 43 41 28 21 16 16 16 17 15 11 10 9
8 7 7 7 6 6 6 7 7 8 7 7 8 9 8 4 6 7 11 20 17 14 13 19 15 23 19 37 47 46 41 36 29 27 21 19 18 18 17 14 11 9 8
9 7 6 5 6 6 5 5 6 8 7 7 6 8 6 6 9 8 14 15 13 15 11 25 22 30 46 45 46 39 33 33 29 24 22 19 19 18 16 13 10 8 6
9 7 6 4 5 5 4 4 7 6 4 8 10 7 7 10 11 12 16 15 12 5 19 25 28 39 50 45 38 34 30 30 27 22 20 20 21 19 14 12 9 7 6
9 9 7 4 4 4 4 5 5 5 7 9 9 8 9 11 12 10 10 14 15 15 23 40 44 42 43 37 35 31 25 24 25 24 21 20 17 14 12 10 8 6 6
9 9 8 5 4 4 5 6 6 7 7 8 8 9 11 13 13 8 16 18 21 25 37 45 45 46 41 36 34 29 25 24 23 23 20 17 15 14 11 8 7 6 6
9 9 8 6 6 7 7 8 7 8 10 10 9 10 11 13 13 14 15 20 25 29 36 41 48 43 39 36 32 29 25 24 25 20 19 16 13 11 9 7 5 3 1
10 9 10 10 7 6 8 10 10 11 13 14 11 10 10 11 11 13 14 17 21 34 36 45 42 40 36 34 33 29 27 23 20 17 16 13 12 11 9 8 5 2 1
11 11 9 10 9 9 11 12 12 11 13 14 14 14 15 14 14 14 17 16 21 36 41 43 42 38 37 33 31 27 26 26 22 14 16 15 12 12 10 8 5 1 3
11 9 9 10 12 14 12 10 10 12 12 14 16 16 17 16 16 17 17 17 20 24 36 35 41 40 35 30 28 27 23 18 15 18 17 14 11 10 10 7 3 0 2
10 9 10 11 12 12 10 8 9 8 13 14 14 16 17 13 15 19 17 19 18 23 26 26 33 31 30 26 24 23 20 20 18 17 12 12 11 9 8 5 2 1 1
7 7 11 12 12 11 9 7 10 11 14 15 16 17 17 17 19 22 23 24 20 21 23 26 26 28 23 20 20 22 21 18 17 14 13 10 11 8 6 6 5 2 2
9 10 12 10 14 11 7 9 13 16 20 18 18 20 19 22 27 27 26 24 24 23 29 33 29 22 19 21 19 15 16 13 14 12 12 10 13 12 7 7 6 6 0
Wind_Direction
255 258 262 259 259 257 254 256 260 260 259 255 245 240 230 223 224 229 230 254 233 231 227 223 227 229 225 220 224 210 193 182 183 183 180 176 173 166 174 177 191 191 188
255 254 258 262 259 253 251 247 253 251 259 253 242 235 225 225 221 227 227 244 238 230 231 224 226 229 224 217 213 203 189 178 185 187 190 191 181 164 174 184 187 197 197
257 255 256 259 259 259 253 244 249 254 252 252 244 231 218 218 218 223 231 233 247 245 232 226 225 227 224 213 208 191 190 189 196 203 204 191 175 164 177 186 193 193 190
263 260 259 264 270 266 257 239 238 242 244 244 242 224 213 218 214 228 229 226 232 229 250 228 227 224 217 214 194 189 194 197 195 204 199 188 163 174 190 184 188 182 171
257 261 261 263 257 263 247 235 233 235 246 239 238 222 212 213 212 223 219 228 228 215 218 234 228 224 212 206 207 206 203 201 202 198 189 161 172 183 182 176 175 164 156
258 260 260 254 266 255 238 234 233 237 240 232 225 209 203 206 221 213 217 223 219 209 213 218 225 220 211 204 201 203 191 196 198 191 168 163 177 179 169 164 152 152 167
265 259 252 259 260 242 243 237 234 240 238 219 202 197 201 205 204 210 211 217 206 200 200 203 205 201 203 180 188 183 189 195 183 169 160 167 171 165 161 150 152 161 153
258 247 254 257 253 235 232 233 236 233 230 210 195 185 184 189 197 203 204 205 199 190 186 191 196 197 183 211 180 189 192 183 170 161 162 167 162 159 149 150 147 159 153
258 258 257 256 243 217 229 234 237 228 221 207 196 185 187 194 181 198 196 196 193 182 183 192 189 190 178 170 179 238 188 174 163 158 165 159 156 150 142 155 161 163 169
260 261 254 227 206 222 231 234 227 216 205 196 192 208 223 178 184 178 186 187 188 183 188 188 186 184 183 190 193 180 191 184 161 158 158 150 143 144 173 172 172 168 158
258 235 207 197 213 223 221 196 200 187 211 190 196 190 191 184 195 189 163 170 167 162 177 181 177 185 182 185 184 188 193 166 154 157 152 139 144 169 173 168 158 155 151
233 192 196 204 211 200 197 182 188 199 201 197 205 202 182 189 197 183 163 158 155 158 155 170 180 190 190 185 195 196 165 159 156 148 142 147 170 170 163 157 160 154 149
189 191 182 189 181 182 166 178 186 200 209 211 213 193 178 179 166 192 167 155 155 159 149 156 176 184 184 189 192 174 151 151 154 150 157 166 157 155 158 160 159 151 152
147 173 167 168 173 171 167 178 186 197 201 186 178 186 218 212 202 210 164 163 143 146 148 156 189 195 175 172 168 146 148 153 153 155 155 154 154 158 163 158 160 150 154
168 160 161 143 143 147 157 174 184 192 195 182 176 171 169 227 195 195 174 168 160 139 149 173 140 170 179 166 147 144 148 152 159 159 156 155 163 161 157 158 153 154 158
162 162 157 141 140 149 157 159 182 183 173 179 181 186 210 183 161 150 158 161 162 162 139 173 170 155 150 149 147 146 153 155 155 155 157 160 160 157 154 149 153 162 166
165 161 160 152 154 153 170 182 168 172 192 170 182 185 170 158 145 136 153 154 142 124 169 175 164 159 153 149 155 149 144 150 151 151 153 156 156 156 159 160 168 179 199
164 168 163 142 156 170 192 187 166 158 158 171 179 176 171 165 156 155 171 161 151 149 158 140 142 147 149 148 150 155 151 146 150 141 147 150 152 160 167 171 183 204 234
164 162 159 174 161 169 166 164 170 165 160 155 153 155 164 162 168 165 168 163 154 146 156 142 146 152 149 149 148 144 143 138 136 145 149 155 163 171 174 184 204 230 264
154 157 154 165 155 165 162 148 157 159 154 139 136 135 133 147 143 141 147 153 153 156 157 141 148 154 153 153 147 143 137 137 145 148 154 157 164 172 182 197 213 225 224
143 148 151 144 139 150 150 135 132 133 135 138 140 130 137 150 153 150 149 150 162 162 149 161 149 155 154 149 146 145 138 142 140 148 149 154 166 169 164 160 155 156 302
139 143 144 147 141 139 135 127 125 125 133 143 141 133 123 125 135 146 154 152 160 163 153 156 164 157 153 150 149 146 145 146 142 151 145 139 148 157 168 165 166 171 347
136 139 143 152 144 140 129 117 117 123 130 131 141 132 130 123 125 133 137 136 161 163 170 163 155 162 155 158 158 155 154 145 154 153 159 143 159 176 175 180 177 360 334
154 155 166 164 159 160 146 137 130 124 138 138 136 128 123 124 131 137 134 133 152 164 168 163 155 151 156 160 155 149 146 165 163 154 159 145 162 177 191 199 199 300 343
143 175 186 178 172 170 164 156 136 150 147 147 138 131 128 118 120 132 138 135 131 140 147 164 150 151 155 154 158 164 166 155 157 173 173 175 171 165 181 206 210 219 218
113 127 136 159 176 175 165 157 154 163 150 152 147 133 135 123 132 117 125 132 134 131 140 146 155 160 169 168 164 154 159 167 170 174 190 172 175 168 171 199 229 215 41